Tracking 23099 objects as of 14-May-2021
HD Live streaming from Space Station
objects crossing your sky now

STARLINK-1899

Track STARLINK-1899 now!
10-day predictions
STARLINK-1899 is classified as:


NORAD ID: 46787
Int'l Code: 2020-074BA
Perigee: 515.2 km
Apogee: 525.9 km
Inclination: 53.1 °
Period: 94.9 minutes
Semi major axis: 6891 km
RCS: Unknown
Launch date: October 24, 2020
Source: United States (US)
Launch site: AIR FORCE EASTERN TEST RANGE (AFETR)
aabbcc
Your satellite tracking list
Your tracking list is empty




NASA's NSSDC Master Catalog

Two Line Element Set (TLE):
1 46787U 20074BA  21133.76205473 -.00069479  00000-0 -34384-2 0  9990
2 46787  53.0564 277.7125 0007803 279.5154  80.4958 15.17501293 31359
Source of the keplerian elements: AFSPC